alice.it alexa rank chart, alice.it alexa rank daily changes

alice.it alexa rank chart, alice.it alexa rank daily changes

alice.it
Actual rank:
20 598

RANK HISTORY

Date Rank Diff
2017/10/17 20 598 +238
2017/10/16 20 360 -46
2017/10/14 20 406 -67
2017/10/13 20 473 -56
2017/10/12 20 529 -53
2017/10/11 20 582 -258
2017/10/10 20 840 +283
2017/10/09 20 557 +141
2017/10/08 20 416 +127
2017/10/07 20 289 +114
2017/10/06 20 175 +133
2017/10/05 20 042 +123
2017/10/04 19 919 +225
2017/10/03 19 694 +199
2017/10/02 19 495 +147
2017/10/01 19 348 +287
2017/09/30 19 061 +21
2017/09/29 19 040 +165
2017/09/28 18 875 +91
2017/09/27 18 784 +117
2017/09/26 18 667 +63
2017/09/25 18 604 +170
2017/09/24 18 434 -131
2017/09/23 18 565 +35
2017/09/22 18 530 +193
2017/09/20 18 337 +146
2017/09/19 18 191 +47
2017/09/18 18 144 +146
2017/09/17 17 998 -231
2017/09/16 18 229 +41
2017/09/15 18 188 +42
2017/09/14 18 146 +75
2017/09/13 18 071 +152
2017/09/12 17 919 +212
2017/09/11 17 707 +151
2017/09/10 17 556 +152
2017/09/09 17 404 +86
2017/09/08 17 318 -71
2017/09/07 17 389 -113
2017/09/06 17 502 -59
2017/09/05 17 561 +81
2017/09/04 17 480 +5
2017/09/03 17 475 +62
2017/09/02 17 413 +56
2017/09/01 17 357 -155
2017/08/31 17 512 -89
2017/08/30 17 601 +53
2017/08/29 17 548 +82
2017/08/28 17 466 +334
2017/08/27 17 132 -175
2017/08/26 17 307 -2
2017/08/25 17 309 -57
2017/08/24 17 366 +144
2017/08/23 17 222 -28
2017/08/22 17 250 +223
2017/08/21 17 027 +61
2017/08/20 16 966 +38
2017/08/19 16 928 +29
2017/08/18 16 899

WIDGET FOR YOUR SITE

DOMAINS WITH THE NEAREST RANK

Domain Rank
smiletemplates.com 20 593
filmy.to 20 594
pucrs.br 20 595
vault.com 20 596
marefa.org 20 597
alice.it 20 598
window.edu.ru 20 599
rotowire.com 20 600
binnews.in 20 601
beppegrillo.it 20 602
argos.ie 20 603

DOMAINS WITH THE NEAREST RANK BY TLD .it

Domain Rank
spaziogames.it 20 144
tecmarket.it 20 322
itasportpress.it 20 365
automobile.it 20 430
internazionale.it 20 495
alice.it 20 598
beppegrillo.it 20 602
movieplayer.it 20 817
unitn.it 20 915
ecut.it 21 052
trivago.it 21 101